TimeEDT,TemperatureF,Dew PointF,Humidity,Sea Level PressureIn,VisibilityMPH,Wind Direction,Wind SpeedMPH,Gust SpeedMPH,PrecipitationIn,Events,Conditions,WindDirDegrees,DateUTC
12:15 AM,48.6,43.9,84,30.20,10.0,NNW,4.6,-,N/A,,Overcast,330,2012-10-09 04:15:00
12:35 AM,48.4,43.9,84,30.19,10.0,NNW,8.1,-,N/A,,Overcast,340,2012-10-09 04:35:00
12:55 AM,48.2,43.9,85,30.19,10.0,NNW,6.9,-,N/A,,Overcast,330,2012-10-09 04:55:00
1:15 AM,48.2,43.9,85,30.19,10.0,NNW,5.8,-,N/A,,Overcast,330,2012-10-09 05:15:00
1:55 AM,48.2,44.2,86,30.19,10.0,North,9.2,-,N/A,,Drizzle,350,2012-10-09 05:55:00
2:15 AM,47.7,44.6,89,30.19,10.0,NW,8.1,-,N/A,,Overcast,320,2012-10-09 06:15:00
2:55 AM,47.1,45.9,95,30.18,10.0,NNW,5.8,-,0.01,,Overcast,330,2012-10-09 06:55:00
3:35 AM,46.6,45.9,97,30.18,7.0,NNW,5.8,-,0.01,,Drizzle,340,2012-10-09 07:35:00
3:55 AM,46.6,46.0,98,30.19,5.0,NNW,4.6,-,0.02,Rain,Rain,330,2012-10-09 07:55:00
4:15 AM,46.6,46.4,99,30.18,4.0,North,5.8,-,0.03,Rain,Light Rain,350,2012-10-09 08:15:00
4:35 AM,46.4,46.4,100,30.18,4.0,NNW,4.6,-,0.03,,Drizzle,330,2012-10-09 08:35:00
4:55 AM,46.4,46.4,100,30.19,5.0,NW,5.8,-,0.03,,Light Drizzle,320,2012-10-09 08:55:00
5:15 AM,46.6,46.6,100,30.19,5.0,NW,5.8,-,N/A,,Drizzle,320,2012-10-09 09:15:00
5:35 AM,46.4,46.4,100,30.18,4.0,NNW,4.6,-,0.01,Rain,Rain,340,2012-10-09 09:35:00
5:55 AM,46.6,46.4,99,30.17,5.0,NNW,4.6,-,0.01,,Light Drizzle,330,2012-10-09 09:55:00
6:15 AM,46.8,46.8,100,30.17,5.0,NW,5.8,-,N/A,,Light Drizzle,320,2012-10-09 10:15:00
6:35 AM,46.6,46.6,100,30.17,5.0,North,6.9,-,N/A,,Drizzle,350,2012-10-09 10:35:00
6:55 AM,46.8,46.8,100,30.18,5.0,NNW,3.5,-,N/A,,Overcast,340,2012-10-09 10:55:00
7:15 AM,46.9,46.8,99,30.17,7.0,NNW,3.5,-,N/A,Rain,Light Rain,330,2012-10-09 11:15:00
7:35 AM,46.9,46.8,99,30.17,5.0,NNW,4.6,-,N/A,,Overcast,330,2012-10-09 11:35:00
7:55 AM,47.3,47.1,99,30.17,7.0,NNW,3.5,-,N/A,,Overcast,340,2012-10-09 11:55:00
8:15 AM,47.5,47.3,99,30.19,7.0,NNW,3.5,-,0.01,,Overcast,330,2012-10-09 12:15:00
8:35 AM,47.8,47.1,97,30.19,7.0,North,5.8,-,0.01,,Overcast,350,2012-10-09 12:35:00
8:55 AM,48.6,47.5,96,30.19,7.0,NNW,3.5,-,0.01,,Overcast,340,2012-10-09 12:55:00
9:15 AM,49.1,47.3,93,30.19,10.0,North,5.8,-,N/A,,Overcast,360,2012-10-09 13:15:00
9:35 AM,49.8,47.7,92,30.19,10.0,North,5.8,-,N/A,,Overcast,350,2012-10-09 13:35:00
9:55 AM,50.9,48.0,90,30.19,10.0,NNW,6.9,-,N/A,,Mostly Cloudy,340,2012-10-09 13:55:00
10:15 AM,51.8,48.2,88,30.19,10.0,North,4.6,-,N/A,,Mostly Cloudy,350,2012-10-09 14:15:00
10:35 AM,53.1,49.1,86,30.18,10.0,North,4.6,-,N/A,,Overcast,360,2012-10-09 14:35:00
10:55 AM,53.6,49.3,85,30.18,10.0,North,5.8,-,N/A,,Mostly Cloudy,360,2012-10-09 14:55:00
11:15 AM,54.7,50.0,84,30.17,10.0,North,4.6,-,N/A,,Mostly Cloudy,10,2012-10-09 15:15:00
11:35 AM,55.4,50.0,82,30.17,10.0,NNE,5.8,-,N/A,,Mostly Cloudy,20,2012-10-09 15:35:00
11:55 AM,56.3,50.5,81,30.16,10.0,NNE,4.6,-,N/A,,Overcast,30,2012-10-09 15:55:00
12:15 PM,56.5,50.9,82,30.16,10.0,North,6.9,-,N/A,,Overcast,10,2012-10-09 16:15:00
12:35 PM,57.2,51.3,81,30.15,10.0,NNE,3.5,-,N/A,,Overcast,30,2012-10-09 16:35:00
12:55 PM,58.3,51.4,78,30.14,10.0,NNE,4.6,-,N/A,,Mostly Cloudy,30,2012-10-09 16:55:00
1:15 PM,59.0,51.1,75,30.14,10.0,NE,6.9,-,N/A,,Mostly Cloudy,40,2012-10-09 17:15:00
1:35 PM,59.2,50.9,74,30.12,10.0,NE,8.1,-,N/A,,Mostly Cloudy,50,2012-10-09 17:35:00
1:55 PM,59.5,50.9,73,30.12,10.0,North,6.9,-,N/A,,Mostly Cloudy,360,2012-10-09 17:55:00
2:15 PM,60.6,51.4,72,30.11,10.0,NE,4.6,-,N/A,,Mostly Cloudy,50,2012-10-09 18:15:00
2:35 PM,60.8,51.6,72,30.11,10.0,NNE,4.6,-,N/A,,Overcast,30,2012-10-09 18:35:00
2:55 PM,61.0,51.4,71,30.10,10.0,North,5.8,-,N/A,,Overcast,360,2012-10-09 18:55:00
3:15 PM,61.7,52.0,70,30.10,10.0,Calm,Calm,-,N/A,,Overcast,0,2012-10-09 19:15:00
3:35 PM,62.8,52.2,68,30.09,10.0,Calm,Calm,-,N/A,,Overcast,0,2012-10-09 19:35:00
3:55 PM,61.9,52.0,70,30.09,10.0,NE,3.5,-,N/A,,Overcast,50,2012-10-09 19:55:00
4:15 PM,62.1,52.0,70,30.09,10.0,Calm,Calm,-,N/A,,Mostly Cloudy,0,2012-10-09 20:15:00
4:35 PM,61.7,52.3,71,30.09,10.0,NE,4.6,-,N/A,,Overcast,40,2012-10-09 20:35:00
4:55 PM,61.7,52.5,72,30.08,10.0,NE,4.6,-,N/A,,Overcast,40,2012-10-09 20:55:00
5:15 PM,61.7,52.5,72,30.09,10.0,NNE,3.5,-,N/A,,Mostly Cloudy,20,2012-10-09 21:15:00
5:35 PM,61.2,52.2,72,30.09,10.0,NNE,3.5,-,N/A,,Overcast,30,2012-10-09 21:35:00
5:55 PM,61.0,52.5,74,30.09,10.0,NE,3.5,-,N/A,,Overcast,50,2012-10-09 21:55:00
6:15 PM,60.4,52.7,76,30.09,10.0,NE,3.5,-,N/A,,Overcast,40,2012-10-09 22:15:00
6:35 PM,60.1,52.7,77,30.09,10.0,NE,3.5,-,N/A,,Overcast,50,2012-10-09 22:35:00
6:55 PM,59.9,52.9,78,30.09,10.0,Calm,Calm,-,N/A,,Overcast,0,2012-10-09 22:55:00
7:15 PM,59.5,52.9,79,30.09,10.0,Calm,Calm,-,N/A,,Overcast,0,2012-10-09 23:15:00
7:35 PM,59.4,53.4,81,30.08,10.0,Calm,Calm,-,N/A,,Overcast,0,2012-10-09 23:35:00
7:55 PM,59.0,53.4,82,30.09,10.0,Calm,Calm,-,N/A,,Overcast,0,2012-10-09 23:55:00
8:15 PM,59.0,53.6,82,30.08,10.0,Calm,Calm,-,N/A,,Overcast,0,2012-10-10 00:15:00
8:35 PM,59.4,53.2,80,30.09,10.0,Calm,Calm,-,N/A,,Overcast,0,2012-10-10 00:35:00
8:55 PM,59.4,53.2,80,30.08,10.0,Calm,Calm,-,N/A,,Overcast,0,2012-10-10 00:55:00
9:15 PM,58.3,54.5,87,30.09,10.0,Calm,Calm,-,N/A,,Overcast,0,2012-10-10 01:15:00
9:35 PM,58.3,54.5,87,30.08,10.0,Calm,Calm,-,N/A,,Overcast,0,2012-10-10 01:35:00
9:55 PM,58.5,54.5,87,30.08,10.0,Calm,Calm,-,N/A,,Overcast,0,2012-10-10 01:55:00
10:15 PM,57.9,55.6,92,30.08,10.0,Calm,Calm,-,N/A,,Overcast,0,2012-10-10 02:15:00
10:35 PM,58.1,55.6,91,30.08,10.0,Calm,Calm,-,N/A,,Overcast,0,2012-10-10 02:35:00
10:55 PM,57.7,55.6,92,30.07,10.0,Calm,Calm,-,N/A,,Overcast,0,2012-10-10 02:55:00
11:15 PM,58.1,55.6,91,30.06,10.0,Calm,Calm,-,N/A,,Overcast,0,2012-10-10 03:15:00
11:35 PM,57.7,55.8,93,30.06,10.0,Calm,Calm,-,N/A,,Overcast,0,2012-10-10 03:35:00
11:55 PM,57.7,55.8,93,30.06,10.0,Calm,Calm,-,N/A,,Overcast,0,2012-10-10 03:55:00